Site menu:

About:

weather.olc.net provides current local weather data collected just outside of Orangeburg, SC and weather information from the NOAA, the National Weather Service, and Weather Underground.

Current Weather
Temp. THW Index*
87.9F 95.2F
Rain Wind Speed
0.00 in WSW at 1.0 mph
*THW Index - An apparent temperature calculated using the temperature, relative humidity, and wind speed.

Orangeburg Forecast

This
AfternoonThis Afternoon: Mostly sunny, with a high near 90. South wind around 16 mph.
Mostly Sunny


High: 90 °F

Tonight

Tonight: Partly cloudy, with a low around 68. South wind 9 to 13 mph.
Partly Cloudy


Low: 68 °F

Historical Data

High Temp
Normal: 80°F
Record: 94°F (1981)
Low Temp
Normal: 54°F
Record: 40°F (1967)
Historical data from Orangeburg Airport provided by Weather UnderGround

SC Regional Weather Roundup

REGIONAL WEATHER ROUNDUP
NATIONAL WEATHER SERVICE COLUMBIA SC
100 PM EST MON NOV 07 2016

NOTE: "FAIR" INDICATES FEW OR NO CLOUDS BELOW 12,000 FEET WITH NO
SIGNIFICANT WEATHER AND/OR OBSTRUCTIONS TO VISIBILITY.

NOT ALL STATIONS ARE QUALITY CONTROLLED BY THE NATIONAL 
WEATHER SERVICE. USE DATA WITH CAUTION...ESPECIALLY 
DEWPOINT OBSERVATIONS.


...UPSTATE SOUTH CAROLINA...
  
CITY           SKY/WX    TMP DP  RH WIND       PRES   REMARKS
ANDERSON       SUNNY     69  32  25 SE6       30.38F                  
6HR MIN TEMP:  48; 6HR MAX TEMP:  70;                                

LIBERTY        CLEAR     69  34  27 E3        30.38F                  
6HR MIN TEMP:  34; 6HR MAX TEMP:  70;                                

SPARTANBURG    SUNNY     68  32  26 E6        30.39F                  
CLEMSON        SUNNY     71  33  24 VRB7      30.39F                  
6HR MIN TEMP:  50; 6HR MAX TEMP:  72;                                

GREENVILLE     SUNNY     68  32  26 VRB5      30.40F                  
6HR MIN TEMP:  52; 6HR MAX TEMP:  69;                                

GREENWOOD      SUNNY     68  32  26 E7        30.40F                  
6HR MIN TEMP:  41; 6HR MAX TEMP:  69; 6HR PCP: TRACE;                

GREER          SUNNY     68  32  26 SE5       30.39F                  
6HR MIN TEMP:  48; 6HR MAX TEMP:  68;                                

ROCK HILL      SUNNY     66  34  30 VRB6      30.41F                  
6HR MIN TEMP:  40; 6HR MAX TEMP:  66;                                

CHESTER        CLEAR     64  32  29 NE9       30.41F                  
LAURENS          N/A     66  36  32 E7        30.40F                  


...CENTRAL SOUTH CAROLINA...
  
CITY           SKY/WX    TMP DP  RH WIND       PRES   REMARKS
COLUMBIA APT   MOSUNNY   69  38  32 E9        30.38F                  
6HR MIN TEMP:  39; 6HR MAX TEMP:  69;                                

COLUMBIA OWENS SUNNY     68  37  32 VRB3      30.39F                  
6HR MIN TEMP:  45; 6HR MAX TEMP:  69;                                

MCENTIRE ANGB  MOSUNNY   68  36  31 NE10      30.38F                  
6HR MIN TEMP:  46; 6HR MAX TEMP:  68;                                

ORANGEBURG     SUNNY     67  34  29 NE9       30.38F                  
6HR MIN TEMP:  46; 6HR MAX TEMP:  68;                                

SUMTER SHAW    SUNNY     69  33  26 E14       30.36F                  
6HR MIN TEMP:  44; 6HR MAX TEMP:  69;                                

NEWBERRY       CLEAR     68  37  32 E8        30.42F                  
MANNING        FAIR      66  36  32 NE10      30.38F                  
LANCASTER      CLEAR     66  30  26 E5        30.40F                  
WINNSBORO      CLEAR     66  36  32 E9        30.39F                  


...EASTERN AND COASTAL SOUTH CAROLINA...
  
CITY           SKY/WX    TMP DP  RH WIND       PRES   REMARKS
MYRTLE BEACH   SUNNY     66  34  30 NE15G22   30.38F                  
N MYRTLE BCH   SUNNY     66  36  32 NE9       30.36F                  
6HR MIN TEMP:  45; 6HR MAX TEMP:  66;                                

CONWAY         FAIR      64  32  29 N12       30.37F HAZE             
MARION         FAIR      64  32  29 N14       30.39F                  
HARTSVILLE     FAIR      66  32  28 NE8       30.39F                  
FLORENCE       SUNNY     67  34  29 NE12      30.39F                  
6HR MIN TEMP:  45; 6HR MAX TEMP:  67;                                

DARLINGTON     SUNNY     67  34  29 NE9       30.40F                  
6HR MIN TEMP:  42; 6HR MAX TEMP:  67;                                

CHARLESTON APT MOSUNNY   71  35  26 NE10      30.35F                  
6HR MIN TEMP:  47; 6HR MAX TEMP:  71;                                

MOUNT PLEASANT   N/A     70  36  28 N8        30.35F                  
WALTERBORO     CLEAR     70  32  24 NE13G21   30.37F                  
BEAUFORT       MOSUNNY   71  39  31 NE9       30.35F                  
6HR MIN TEMP:  48; 6HR MAX TEMP:  71;                                

HILTON HEAD    MOSUNNY   72  43  35 NE13      30.35F                  


...EASTERN GEORGIA...
  
CITY           SKY/WX    TMP DP  RH WIND       PRES   REMARKS
AUGUSTA BUSH F SUNNY     73  34  23 VRB7      30.36F                  
6HR MIN TEMP:  42; 6HR MAX TEMP:  73;                                

AUGUSTA DANIEL SUNNY     72  32  23 VRB6      30.37F                  
6HR MIN TEMP:  54; 6HR MAX TEMP:  72;                                

THOMSON        SUNNY     71  40  31 E7        30.41F                  
6HR MIN TEMP:  40; 6HR MAX TEMP:  72;                                

WASHINGTON     FAIR      73  41  31 E6        30.37F                  
CLAXTON        FAIR      73  45  36 NE13G18   30.33F                  
6HR MIN TEMP:  40; 6HR MAX TEMP:  74;                                

STATESBORO     SUNNY     72  44  36 E5        30.35F                  
6HR MIN TEMP:  43; 6HR MAX TEMP:  73;                                

SAVANNAH       MOSUNNY   73  46  38 NE10G20   30.33F                  
6HR MIN TEMP:  47; 6HR MAX TEMP:  74;                                



...SOUTHERN NORTH CAROLINA...
  
CITY           SKY/WX    TMP DP  RH WIND       PRES   REMARKS
CHARLOTTE      MOSUNNY   65  33  30 E3        30.42F                  
6HR MIN TEMP:  44; 6HR MAX TEMP:  65;                                

MONROE         SUNNY     64  31  28 VRB5      30.40F                  
6HR MIN TEMP:  44; 6HR MAX TEMP:  65;                                

WADESBORO      CLEAR     65  33  30 N7        30.42F                  
RUTHERFORDTON  SUNNY     68  34  28 SE3       30.41F                  
ASHEVILLE      SUNNY     65  29  25 CALM      30.40F                  
6HR MIN TEMP:  34; 6HR MAX TEMP:  65;